User: anonymous   Login
Location: Unspecified
(0.0000°N, 0.0000°E)
Time: 04:54:13
(UTC+00:00)
Language:

Astrid 2 - Orbit

View from above orbital plane
View from above orbital plane
View from above satellite
View from above satellite

Ground track
Ground track

The orbit data is extracted from the following two-line orbital elements,

1 25568U 98072B   18113.54590894 +.00000057 +00000-0 +45758-4 0  9995
2 25568 082.9459 118.3651 0026530 078.8325 040.2222 13.72532248969765
Epoch (UTC): 23 April 2018 13:06:06
Eccentricity: 0.0026530
inclination: 82.9459°
perigee height: 971 km
apogee height: 1010 km
right ascension of ascending node: 118.3651°
argument of perigee: 78.8325°
revolutions per day: 13.72532248
mean anomaly at epoch: 40.2222°
orbit number at epoch: 96976

The dashed part of the orbit path shows where the satellite is in the earth's shadow,  

DLR